Time,TemperatureF,DewpointF,PressureIn,WindDirection,WindDirectionDegrees,WindSpeedMPH,WindSpeedGustMPH,Humidity,HourlyPrecipIn,Conditions,Clouds,dailyrainin,SolarRadiationWatts/m^2,SoftwareType,DateUTC
2013-02-05 00:01:00,45.0,19.0,-100.00,SW,219,6.0,10.0,35,0.00,,,0.00,0.000000,,2013-02-05 08:01:00,
2013-02-05 00:52:00,44.0,16.0,-100.00,South,183,5.0,10.0,32,-99.99,,,0.00,0.000000,,2013-02-05 08:52:00,
2013-02-05 01:02:00,44.0,16.0,-100.00,South,183,5.0,10.0,32,-99.99,,,0.00,0.000000,,2013-02-05 09:02:00,
2013-02-05 01:52:00,44.0,15.0,-100.00,SSW,201,7.0,11.0,31,-99.99,,,0.00,0.000000,,2013-02-05 09:52:00,
2013-02-05 02:01:00,44.0,15.0,-100.00,SSW,201,7.0,11.0,31,-99.99,,,0.00,0.000000,,2013-02-05 10:01:00,
2013-02-05 02:31:00,43.0,16.0,-100.00,SW,216,6.0,13.0,33,0.00,,,-99.99,0.000000,,2013-02-05 10:31:00,
2013-02-05 02:52:00,43.0,16.0,-100.00,SW,216,6.0,13.0,33,0.00,,,-99.99,0.000000,,2013-02-05 10:52:00,
2013-02-05 03:01:00,43.0,16.0,-100.00,SW,216,6.0,13.0,33,0.00,,,-99.99,0.000000,,2013-02-05 11:01:00,
2013-02-05 03:52:00,43.0,18.0,-100.00,SW,226,6.0,15.0,36,0.00,,,0.00,0.000000,,2013-02-05 11:52:00,
2013-02-05 04:01:00,43.0,18.0,-100.00,SW,226,6.0,15.0,36,0.00,,,0.00,0.000000,,2013-02-05 12:01:00,
2013-02-05 04:12:00,43.0,18.0,-100.00,SW,226,6.0,15.0,36,0.00,,,0.00,0.000000,,2013-02-05 12:12:00,
2013-02-05 04:21:00,43.0,18.0,-100.00,SW,226,6.0,15.0,36,0.00,,,0.00,0.000000,,2013-02-05 12:21:00,
2013-02-05 04:31:00,42.0,19.0,-100.00,WSW,239,5.0,16.0,39,-99.99,,,0.00,0.000000,,2013-02-05 12:31:00,
2013-02-05 04:52:00,42.0,19.0,-100.00,WSW,239,5.0,16.0,39,-99.99,,,0.00,0.000000,,2013-02-05 12:52:00,
2013-02-05 05:01:00,42.0,19.0,-100.00,WSW,239,5.0,16.0,39,-99.99,,,0.00,0.000000,,2013-02-05 13:01:00,
2013-02-05 05:11:00,42.0,19.0,-100.00,WSW,239,5.0,16.0,39,-99.99,,,0.00,0.000000,,2013-02-05 13:11:00,
2013-02-05 05:21:00,42.0,19.0,-100.00,WSW,239,5.0,16.0,39,-99.99,,,0.00,0.000000,,2013-02-05 13:21:00,
2013-02-05 05:31:00,40.0,21.0,-100.00,WSW,241,6.0,16.0,47,-99.99,,,0.00,0.000000,,2013-02-05 13:31:00,
2013-02-05 05:52:00,40.0,21.0,-100.00,WSW,241,6.0,16.0,47,-99.99,,,0.00,0.000000,,2013-02-05 13:52:00,
2013-02-05 06:01:00,40.0,21.0,-100.00,WSW,241,6.0,16.0,47,-99.99,,,0.00,0.000000,,2013-02-05 14:01:00,
2013-02-05 06:12:00,40.0,21.0,-100.00,WSW,241,6.0,16.0,47,-99.99,,,0.00,0.000000,,2013-02-05 14:12:00,
2013-02-05 06:21:00,40.0,21.0,-100.00,WSW,241,6.0,16.0,47,-99.99,,,0.00,0.000000,,2013-02-05 14:21:00,
2013-02-05 06:31:00,40.0,23.0,-100.00,SW,222,5.0,13.0,51,0.00,,,0.00,0.000000,,2013-02-05 14:31:00,
2013-02-05 06:52:00,40.0,23.0,-100.00,SW,222,5.0,13.0,51,0.00,,,0.00,0.000000,,2013-02-05 14:52:00,
2013-02-05 07:01:00,40.0,23.0,-100.00,SW,222,5.0,13.0,51,0.00,,,0.00,0.000000,,2013-02-05 15:01:00,
2013-02-05 07:11:00,40.0,23.0,-100.00,SW,222,5.0,13.0,51,0.00,,,0.00,0.000000,,2013-02-05 15:11:00,
2013-02-05 07:21:00,40.0,23.0,-100.00,SW,222,5.0,13.0,51,0.00,,,0.00,0.000000,,2013-02-05 15:21:00,
2013-02-05 07:31:00,39.0,25.0,-100.00,WSW,241,5.0,12.0,56,0.00,,,0.00,0.000000,,2013-02-05 15:31:00,
2013-02-05 07:52:00,39.0,25.0,-100.00,WSW,241,5.0,12.0,56,0.00,,,0.00,0.000000,,2013-02-05 15:52:00,
2013-02-05 08:01:00,39.0,25.0,-100.00,WSW,241,5.0,12.0,56,0.00,,,0.00,0.000000,,2013-02-05 16:01:00,
2013-02-05 08:11:00,39.0,25.0,-100.00,WSW,241,5.0,12.0,56,0.00,,,0.00,0.000000,,2013-02-05 16:11:00,
2013-02-05 08:22:00,39.0,25.0,-100.00,WSW,241,5.0,12.0,56,0.00,,,0.00,0.000000,,2013-02-05 16:22:00,
2013-02-05 08:31:00,37.0,31.0,-100.00,SSW,196,7.0,12.0,78,0.00,,,-99.99,24.000000,,2013-02-05 16:31:00,
2013-02-05 08:52:00,37.0,31.0,-100.00,SSW,196,7.0,12.0,78,0.00,,,-99.99,24.000000,,2013-02-05 16:52:00,
2013-02-05 09:01:00,37.0,31.0,-100.00,SSW,196,7.0,12.0,78,0.00,,,-99.99,24.000000,,2013-02-05 17:01:00,
2013-02-05 09:11:00,37.0,31.0,-100.00,SSW,196,7.0,12.0,78,0.00,,,-99.99,24.000000,,2013-02-05 17:11:00,
2013-02-05 09:21:00,37.0,31.0,-100.00,SSW,196,7.0,12.0,78,0.00,,,-99.99,24.000000,,2013-02-05 17:21:00,
2013-02-05 09:31:00,39.0,32.0,-100.00,SSW,205,5.0,14.0,77,0.00,,,0.00,159.000000,,2013-02-05 17:31:00,
2013-02-05 09:52:00,39.0,32.0,-100.00,SSW,205,5.0,14.0,77,0.00,,,0.00,159.000000,,2013-02-05 17:52:00,
2013-02-05 10:01:00,39.0,32.0,-100.00,SSW,205,5.0,14.0,77,0.00,,,0.00,159.000000,,2013-02-05 18:01:00,
2013-02-05 10:11:00,39.0,32.0,-100.00,SSW,205,5.0,14.0,77,0.00,,,0.00,159.000000,,2013-02-05 18:11:00,
2013-02-05 10:21:00,39.0,32.0,-100.00,SSW,205,5.0,14.0,77,0.00,,,0.00,159.000000,,2013-02-05 18:21:00,
2013-02-05 10:31:00,38.0,32.0,-100.00,SSW,201,7.0,14.0,78,0.00,,,0.00,191.000000,,2013-02-05 18:31:00,
2013-02-05 10:52:00,38.0,32.0,-100.00,SSW,201,7.0,14.0,78,0.00,,,0.00,191.000000,,2013-02-05 18:52:00,
2013-02-05 11:02:00,38.0,32.0,-100.00,SSW,201,7.0,14.0,78,0.00,,,0.00,191.000000,,2013-02-05 19:02:00,
2013-02-05 11:11:00,38.0,32.0,-100.00,SSW,201,7.0,14.0,78,0.00,,,0.00,191.000000,,2013-02-05 19:11:00,
2013-02-05 11:21:00,38.0,32.0,-100.00,SSW,201,7.0,14.0,78,0.00,,,0.00,191.000000,,2013-02-05 19:21:00,
2013-02-05 11:31:00,40.0,33.0,-100.00,SSW,210,7.0,14.0,75,0.00,,,0.00,312.000000,,2013-02-05 19:31:00,
2013-02-05 11:52:00,40.0,33.0,-100.00,SSW,210,7.0,14.0,75,0.00,,,0.00,312.000000,,2013-02-05 19:52:00,
2013-02-05 12:01:00,40.0,33.0,-100.00,SSW,210,7.0,14.0,75,0.00,,,0.00,312.000000,,2013-02-05 20:01:00,
2013-02-05 12:11:00,40.0,33.0,-100.00,SSW,210,7.0,14.0,75,0.00,,,0.00,312.000000,,2013-02-05 20:11:00,
2013-02-05 12:21:00,40.0,33.0,-100.00,SSW,210,7.0,14.0,75,0.00,,,0.00,312.000000,,2013-02-05 20:21:00,
2013-02-05 12:31:00,43.0,31.0,-100.00,SW,235,10.0,18.0,62,0.00,,,0.00,458.000000,,2013-02-05 20:31:00,
2013-02-05 12:52:00,43.0,31.0,-100.00,SW,235,10.0,18.0,62,0.00,,,0.00,458.000000,,2013-02-05 20:52:00,
2013-02-05 13:01:00,43.0,31.0,-100.00,SW,235,10.0,18.0,62,0.00,,,0.00,458.000000,,2013-02-05 21:01:00,
2013-02-05 13:11:00,43.0,31.0,-100.00,SW,235,10.0,18.0,62,0.00,,,0.00,458.000000,,2013-02-05 21:11:00,
2013-02-05 13:21:00,43.0,31.0,-100.00,SW,235,10.0,18.0,62,0.00,,,0.00,458.000000,,2013-02-05 21:21:00,
2013-02-05 13:31:00,44.0,28.0,-100.00,SW,233,8.0,17.0,54,0.00,,,0.00,490.000000,,2013-02-05 21:31:00,
2013-02-05 13:52:00,44.0,28.0,-100.00,SW,233,8.0,17.0,54,0.00,,,0.00,490.000000,,2013-02-05 21:52:00,
2013-02-05 14:01:00,44.0,28.0,-100.00,SW,233,8.0,17.0,54,0.00,,,0.00,490.000000,,2013-02-05 22:01:00,
2013-02-05 14:11:00,44.0,28.0,-100.00,SW,233,8.0,17.0,54,0.00,,,0.00,490.000000,,2013-02-05 22:11:00,
2013-02-05 14:21:00,44.0,28.0,-100.00,SW,233,8.0,17.0,54,0.00,,,0.00,490.000000,,2013-02-05 22:21:00,
2013-02-05 14:31:00,41.0,27.0,-100.00,SSW,207,7.0,22.0,58,0.00,,,0.00,381.000000,,2013-02-05 22:31:00,
2013-02-05 14:52:00,41.0,27.0,-100.00,SSW,207,7.0,22.0,58,0.00,,,0.00,381.000000,,2013-02-05 22:52:00,
2013-02-05 15:01:00,41.0,27.0,-100.00,SSW,207,7.0,22.0,58,0.00,,,0.00,381.000000,,2013-02-05 23:01:00,
2013-02-05 15:11:00,41.0,27.0,-100.00,SSW,207,7.0,22.0,58,0.00,,,0.00,381.000000,,2013-02-05 23:11:00,
2013-02-05 15:21:00,41.0,27.0,-100.00,SSW,207,7.0,22.0,58,0.00,,,0.00,381.000000,,2013-02-05 23:21:00,
2013-02-05 15:31:00,40.0,29.0,-100.00,SSW,197,8.0,17.0,64,0.00,,,0.00,132.000000,,2013-02-05 23:31:00,
2013-02-05 15:52:00,40.0,29.0,-100.00,SSW,197,8.0,17.0,64,0.00,,,0.00,132.000000,,2013-02-05 23:52:00,
2013-02-05 16:01:00,40.0,29.0,-100.00,SSW,197,8.0,17.0,64,0.00,,,0.00,132.000000,,2013-02-06 00:01:00,
2013-02-05 16:11:00,40.0,29.0,-100.00,SSW,197,8.0,17.0,64,0.00,,,0.00,132.000000,,2013-02-06 00:11:00,
2013-02-05 16:21:00,40.0,29.0,-100.00,SSW,197,8.0,17.0,64,0.00,,,0.00,132.000000,,2013-02-06 00:21:00,
2013-02-05 16:31:00,39.0,25.0,-100.00,SSW,202,7.0,22.0,58,0.00,,,0.00,227.000000,,2013-02-06 00:31:00,
2013-02-05 16:52:00,39.0,25.0,-100.00,SSW,202,7.0,22.0,58,0.00,,,0.00,227.000000,,2013-02-06 00:52:00,
2013-02-05 17:01:00,39.0,25.0,-100.00,SSW,202,7.0,22.0,58,0.00,,,0.00,227.000000,,2013-02-06 01:01:00,
2013-02-05 17:11:00,39.0,25.0,-100.00,SSW,202,7.0,22.0,58,0.00,,,0.00,227.000000,,2013-02-06 01:11:00,
2013-02-05 17:21:00,39.0,25.0,-100.00,SSW,202,7.0,22.0,58,0.00,,,0.00,227.000000,,2013-02-06 01:21:00,
2013-02-05 17:31:00,37.0,27.0,-100.00,South,185,10.0,16.0,67,0.00,,,0.00,25.000000,,2013-02-06 01:31:00,
2013-02-05 17:53:00,37.0,27.0,-100.00,South,185,10.0,16.0,67,0.00,,,0.00,25.000000,,2013-02-06 01:53:00,
2013-02-05 18:01:00,37.0,27.0,-100.00,South,185,10.0,16.0,67,0.00,,,0.00,25.000000,,2013-02-06 02:01:00,
2013-02-05 18:11:00,37.0,27.0,-100.00,South,185,10.0,16.0,67,0.00,,,0.00,25.000000,,2013-02-06 02:11:00,
2013-02-05 18:21:00,37.0,27.0,-100.00,South,185,10.0,16.0,67,0.00,,,0.00,25.000000,,2013-02-06 02:21:00,
2013-02-05 18:31:00,36.0,29.0,-100.00,South,184,8.0,16.0,74,0.00,,,0.00,0.000000,,2013-02-06 02:31:00,
2013-02-05 18:52:00,36.0,29.0,-100.00,South,184,8.0,16.0,74,0.00,,,0.00,0.000000,,2013-02-06 02:52:00,
2013-02-05 19:02:00,36.0,29.0,-100.00,South,184,8.0,16.0,74,0.00,,,0.00,0.000000,,2013-02-06 03:02:00,
2013-02-05 19:12:00,36.0,29.0,-100.00,South,184,8.0,16.0,74,0.00,,,0.00,0.000000,,2013-02-06 03:12:00,
2013-02-05 19:21:00,36.0,29.0,-100.00,South,184,8.0,16.0,74,0.00,,,0.00,0.000000,,2013-02-06 03:21:00,
2013-02-05 19:31:00,36.0,28.0,-100.00,SSW,212,6.0,15.0,73,0.00,,,0.00,0.000000,,2013-02-06 03:31:00,
2013-02-05 19:53:00,36.0,28.0,-100.00,SSW,212,6.0,15.0,73,0.00,,,0.00,0.000000,,2013-02-06 03:53:00,
2013-02-05 20:02:00,36.0,28.0,-100.00,SSW,212,6.0,15.0,73,0.00,,,0.00,0.000000,,2013-02-06 04:02:00,
2013-02-05 20:11:00,36.0,28.0,-100.00,SSW,212,6.0,15.0,73,0.00,,,0.00,0.000000,,2013-02-06 04:11:00,
2013-02-05 20:21:00,36.0,28.0,-100.00,SSW,212,6.0,15.0,73,0.00,,,0.00,0.000000,,2013-02-06 04:21:00,
2013-02-05 20:31:00,34.0,27.0,-100.00,SSW,211,6.0,12.0,75,0.00,,,0.00,0.000000,,2013-02-06 04:31:00,
2013-02-05 20:52:00,34.0,27.0,-100.00,SSW,211,6.0,12.0,75,0.00,,,0.00,0.000000,,2013-02-06 04:52:00,
2013-02-05 21:01:00,34.0,27.0,-100.00,SSW,211,6.0,12.0,75,0.00,,,0.00,0.000000,,2013-02-06 05:01:00,
2013-02-05 21:12:00,34.0,27.0,-100.00,SSW,211,6.0,12.0,75,0.00,,,0.00,0.000000,,2013-02-06 05:12:00,
2013-02-05 21:22:00,34.0,27.0,-100.00,SSW,211,6.0,12.0,75,0.00,,,0.00,0.000000,,2013-02-06 05:22:00,
2013-02-05 21:31:00,34.0,32.0,-100.00,SSW,203,6.0,13.0,93,0.01,,,0.01,0.000000,,2013-02-06 05:31:00,
2013-02-05 21:53:00,34.0,32.0,-100.00,SSW,203,6.0,13.0,93,0.01,,,0.01,0.000000,,2013-02-06 05:53:00,
2013-02-05 22:01:00,34.0,32.0,-100.00,SSW,203,6.0,13.0,93,0.01,,,0.01,0.000000,,2013-02-06 06:01:00,
2013-02-05 22:11:00,34.0,32.0,-100.00,SSW,203,6.0,13.0,93,0.01,,,0.01,0.000000,,2013-02-06 06:11:00,
2013-02-05 22:21:00,34.0,32.0,-100.00,SSW,203,6.0,13.0,93,0.01,,,0.01,0.000000,,2013-02-06 06:21:00,
2013-02-05 22:31:00,33.0,30.0,-100.00,SSW,211,7.0,15.0,88,0.00,,,-99.99,0.000000,,2013-02-06 06:31:00,
2013-02-05 22:52:00,33.0,30.0,-100.00,SSW,211,7.0,15.0,88,0.00,,,-99.99,0.000000,,2013-02-06 06:52:00,
2013-02-05 23:01:00,33.0,30.0,-100.00,SSW,211,7.0,15.0,88,0.00,,,-99.99,0.000000,,2013-02-06 07:01:00,
2013-02-05 23:11:00,33.0,30.0,-100.00,SSW,211,7.0,15.0,88,0.00,,,-99.99,0.000000,,2013-02-06 07:11:00,
2013-02-05 23:21:00,33.0,30.0,-100.00,SSW,211,7.0,15.0,88,0.00,,,-99.99,0.000000,,2013-02-06 07:21:00,
2013-02-05 23:31:00,33.0,30.0,-100.00,SSW,197,6.0,12.0,90,0.00,,,0.01,0.000000,,2013-02-06 07:31:00,
2013-02-05 23:52:00,33.0,30.0,-100.00,SSW,197,6.0,12.0,90,0.00,,,0.01,0.000000,,2013-02-06 07:52:00,